Main page
Satellite images Climate Cyclones Lightning AirportsFAQ Languages Contact Newsletter About
Weather : Europe Africa North America South America Asia Australia-Oceania Others

phuket-th, Phuket, Phuket International Airport

48565

latitude: , longitude: Thailand, elevation: 08-07N m


METAR: VTSP 200300Z 00000KT 9000 FEW018 BKN100 26/24 Q1012 NOSIG